Simultaneous Nadir Overpasses (SNOs) Predictions

Prediction of SNOs between GOES-17 and NOAA-19 Satellite Orbit:

Table of predicted SNOs for the next 14.0 days since TLE Epoch: 8/30/2024
Index Date Time (GOES-17) GOES-17 Lat,Lon NOAA-19 Lat,Lon Distance(km) Time Diff (sec)
1 08/31/2024 16:12:01 0.00,-104.72 -0.51,-102.50 253.94 80
2 09/03/2024 04:34:08 -0.00,-104.67 -0.54,-107.13 279.91 80
3 09/04/2024 04:19:05 0.00,-104.68 0.11,-104.12 63.13 80
4 09/05/2024 04:06:44 0.00,-104.68 0.83,-101.12 406.18 80
5 09/06/2024 16:38:13 0.00,-104.72 0.91,-108.68 451.46 80
6 09/07/2024 16:25:51 0.00,-104.72 0.19,-105.68 108.43 80
7 09/08/2024 16:16:09 0.00,-104.72 -0.47,-102.67 234.67 80
8 09/11/2024 04:35:33 -0.01,-104.67 -0.62,-107.28 298.11 80
9 09/12/2024 04:20:30 -0.02,-104.67 0.07,-104.27 44.77 80
10 09/13/2024 04:08:08 -0.02,-104.66 0.76,-101.27 387.61 80
